Climatologie pour Saint-Brevin les Pins
Jour • Résumé pour mars 9, 2017 Système :  Métrique    Anglais   Mixte
« - 1 jour
+ 1 jour »
Jour Semaine Mois Année Personnalisé
  Maximum : Minimum : Moyenne :
Température sous abri : 14.2 °C 8.7 °C 11.1 °C
Point de rosée : 12.4 °C 8.5 °C 10.3 °C
Humidité : 99 % 88 % 95 %
Vitesse du vent : 20.9 km/h 0.0 km/h 5.8 km/h
Rafale : 29.0 km/h - -
Direction :- - WSW
Pression : 1027.0 hPa 1023.9 hPa -
Précipitations : 0.0 mm    
Historical Graphs
 
 
Tableau de données pour mars 9, 2017
Heure Tempé Pt rosée Pression Vent Vitesse Rafale Humidité Taux pluie (/hr) Soleil
00:00 10.5 °C 10.2 °C 1024.6 hPa WSW 9.7 km/h 20.9 km/h 98 % 0.0 mm 0 W/m2
00:05 10.5 °C 10.2 °C 1024.6 hPa West 3.2 km/h 20.9 km/h 98 % 0.0 mm 0 W/m2
00:10 10.5 °C 10.2 °C 1024.6 hPa WSW 9.7 km/h 22.5 km/h 98 % 0.0 mm 0 W/m2
00:15 10.4 °C 10.1 °C 1024.6 hPa SW 6.4 km/h 22.5 km/h 98 % 0.0 mm 0 W/m2
00:20 10.5 °C 10.2 °C 1024.6 hPa WSW 12.9 km/h 20.9 km/h 98 % 0.0 mm 0 W/m2
00:25 10.4 °C 10.1 °C 1024.6 hPa WSW 9.7 km/h 22.5 km/h 98 % 0.0 mm 0 W/m2
00:30 10.4 °C 10.1 °C 1024.6 hPa WNW 3.2 km/h 22.5 km/h 98 % 0.0 mm 0 W/m2
00:35 10.4 °C 10.1 °C 1024.6 hPa WSW 6.4 km/h 17.7 km/h 98 % 0.0 mm 0 W/m2
00:40 10.4 °C 10.1 °C 1024.6 hPa West 9.7 km/h 17.7 km/h 98 % 0.0 mm 0 W/m2
00:45 10.4 °C 10.1 °C 1024.6 hPa WSW 12.9 km/h 19.3 km/h 98 % 0.0 mm 0 W/m2
00:50 10.4 °C 10.1 °C 1024.6 hPa West 8.0 km/h 19.3 km/h 98 % 0.0 mm 0 W/m2
00:55 10.4 °C 10.1 °C 1024.6 hPa WSW 14.5 km/h 19.3 km/h 98 % 0.0 mm 0 W/m2
01:00 10.4 °C 10.1 °C 1024.6 hPa West 4.8 km/h 19.3 km/h 98 % 0.0 mm 0 W/m2
01:05 10.4 °C 10.1 °C 1024.9 hPa West 3.2 km/h 14.5 km/h 98 % 0.0 mm 0 W/m2
01:10 10.4 °C 10.1 °C 1024.9 hPa WSW 11.3 km/h 14.5 km/h 98 % 0.0 mm 0 W/m2
01:15 10.4 °C 10.1 °C 1024.9 hPa WSW 11.3 km/h 12.9 km/h 98 % 0.0 mm 0 W/m2
01:20 10.4 °C 10.1 °C 1024.9 hPa West 3.2 km/h 12.9 km/h 98 % 0.0 mm 0 W/m2
01:25 10.4 °C 10.1 °C 1024.9 hPa West 4.8 km/h 14.5 km/h 98 % 0.0 mm 0 W/m2
01:30 10.4 °C 10.1 °C 1024.6 hPa WSW 4.8 km/h 14.5 km/h 98 % 0.0 mm 0 W/m2
01:35 10.4 °C 10.1 °C 1024.6 hPa WSW 8.0 km/h 19.3 km/h 98 % 0.0 mm 0 W/m2
01:40 10.5 °C 10.2 °C 1024.6 hPa WSW 11.3 km/h 19.3 km/h 98 % 0.0 mm 0 W/m2
01:45 10.5 °C 10.0 °C 1024.6 hPa SW 9.7 km/h 19.3 km/h 97 % 0.0 mm 0 W/m2
01:50 10.6 °C 10.3 °C 1024.6 hPa West 11.3 km/h 19.3 km/h 98 % 0.0 mm 0 W/m2
01:55 10.6 °C 10.3 °C 1024.9 hPa WSW 4.8 km/h 20.9 km/h 98 % 0.0 mm 0 W/m2
02:00 10.6 °C 10.1 °C 1024.9 hPa WNW 4.8 km/h 22.5 km/h 97 % 0.0 mm 0 W/m2
02:05 10.6 °C 10.1 °C 1024.9 hPa SW 6.4 km/h 22.5 km/h 97 % 0.0 mm 0 W/m2
02:10 10.6 °C 10.2 °C 1024.9 hPa West 9.7 km/h 29.0 km/h 97 % 0.0 mm 0 W/m2
02:15 10.6 °C 10.2 °C 1024.9 hPa West 20.9 km/h 29.0 km/h 97 % 0.0 mm 0 W/m2
02:20 10.7 °C 10.2 °C 1024.6 hPa West 8.0 km/h 20.9 km/h 97 % 0.0 mm 0 W/m2
02:25 10.7 °C 10.2 °C 1024.6 hPa WNW 12.9 km/h 20.9 km/h 97 % 0.0 mm 0 W/m2
02:30 10.7 °C 10.2 °C 1024.6 hPa WNW 6.4 km/h 20.9 km/h 97 % 0.0 mm 0 W/m2
02:35 10.7 °C 10.3 °C 1024.6 hPa West 14.5 km/h 19.3 km/h 97 % 0.0 mm 0 W/m2
02:40 10.7 °C 10.2 °C 1024.6 hPa West 9.7 km/h 16.1 km/h 97 % 0.0 mm 0 W/m2
02:45 10.7 °C 10.3 °C 1024.6 hPa West 12.9 km/h 20.9 km/h 97 % 0.0 mm 0 W/m2
02:50 10.7 °C 10.3 °C 1024.6 hPa SW 11.3 km/h 20.9 km/h 97 % 0.0 mm 0 W/m2
02:55 10.7 °C 10.3 °C 1024.6 hPa WSW 11.3 km/h 20.9 km/h 97 % 0.0 mm 0 W/m2
03:00 10.7 °C 10.3 °C 1024.6 hPa WNW 3.2 km/h 17.7 km/h 97 % 0.0 mm 0 W/m2
03:05 10.7 °C 10.1 °C 1024.6 hPa WSW 8.0 km/h 17.7 km/h 96 % 0.0 mm 0 W/m2
03:10 10.7 °C 10.1 °C 1024.6 hPa SW 8.0 km/h 19.3 km/h 96 % 0.0 mm 0 W/m2
03:15 10.7 °C 10.1 °C 1024.6 hPa West 3.2 km/h 19.3 km/h 96 % 0.0 mm 0 W/m2
03:20 10.7 °C 10.1 °C 1024.6 hPa West 6.4 km/h 14.5 km/h 96 % 0.0 mm 0 W/m2
03:25 10.7 °C 10.1 °C 1024.6 hPa WSW 1.6 km/h 14.5 km/h 96 % 0.0 mm 0 W/m2
03:30 10.7 °C 10.1 °C 1024.6 hPa Calm   14.5 km/h 96 % 0.0 mm 0 W/m2
03:35 10.7 °C 10.1 °C 1024.6 hPa WSW 3.2 km/h 9.7 km/h 96 % 0.0 mm 0 W/m2
03:40 10.7 °C 10.1 °C 1024.6 hPa WSW 8.0 km/h 9.7 km/h 96 % 0.0 mm 0 W/m2
03:45 10.7 °C 10.1 °C 1024.6 hPa WSW 4.8 km/h 9.7 km/h 96 % 0.0 mm 0 W/m2
03:50 10.6 °C 10.0 °C 1024.3 hPa SSW 6.4 km/h 9.7 km/h 96 % 0.0 mm 0 W/m2
03:55 10.6 °C 10.0 °C 1024.3 hPa SW 1.6 km/h 8.0 km/h 96 % 0.0 mm 0 W/m2
04:00 10.6 °C 9.9 °C 1024.3 hPa WSW 4.8 km/h 9.7 km/h 96 % 0.0 mm 0 W/m2
04:05 10.5 °C 9.9 °C 1024.3 hPa SW 6.4 km/h 9.7 km/h 96 % 0.0 mm 0 W/m2
04:10 10.5 °C 9.9 °C 1024.3 hPa SW 1.6 km/h 9.7 km/h 96 % 0.0 mm 0 W/m2
04:20 10.4 °C 9.8 °C 1024.3 hPa Calm   6.4 km/h 96 % 0.0 mm 0 W/m2
04:25 10.4 °C 9.8 °C 1024.3 hPa SW 3.2 km/h 6.4 km/h 96 % 0.0 mm 0 W/m2
04:30 10.4 °C 9.8 °C 1024.3 hPa South 9.7 km/h 9.7 km/h 96 % 0.0 mm 0 W/m2
04:35 10.4 °C 9.8 °C 1024.3 hPa South 4.8 km/h 9.7 km/h 96 % 0.0 mm 0 W/m2
04:40 10.3 °C 9.7 °C 1023.9 hPa SW 3.2 km/h 12.9 km/h 96 % 0.0 mm 0 W/m2
04:45 10.3 °C 9.7 °C 1024.3 hPa WSW 1.6 km/h 12.9 km/h 96 % 0.0 mm 0 W/m2
04:50 10.3 °C 9.7 °C 1024.3 hPa WSW 3.2 km/h 8.0 km/h 96 % 0.0 mm 0 W/m2
04:55 10.3 °C 9.7 °C 1024.3 hPa Calm   8.0 km/h 96 % 0.0 mm 0 W/m2
05:00 10.3 °C 9.7 °C 1024.3 hPa Calm   8.0 km/h 96 % 0.0 mm 0 W/m2
05:05 10.3 °C 9.7 °C 1024.3 hPa Calm   8.0 km/h 96 % 0.0 mm 0 W/m2
05:10 10.3 °C 9.7 °C 1024.6 hPa Calm   4.8 km/h 96 % 0.0 mm 0 W/m2
05:15 10.3 °C 9.7 °C 1024.6 hPa Calm   4.8 km/h 96 % 0.0 mm 0 W/m2
05:20 10.2 °C 9.6 °C 1024.6 hPa Calm   1.6 km/h 96 % 0.0 mm 0 W/m2
05:25 10.2 °C 9.6 °C 1024.6 hPa Calm   1.6 km/h 96 % 0.0 mm 0 W/m2
05:30 10.2 °C 9.6 °C 1024.6 hPa Calm   1.6 km/h 96 % 0.0 mm 0 W/m2
05:35 10.2 °C 9.6 °C 1024.6 hPa Calm   1.6 km/h 96 % 0.0 mm 0 W/m2
05:40 10.2 °C 9.6 °C 1024.6 hPa Calm   1.6 km/h 96 % 0.0 mm 0 W/m2
05:45 10.2 °C 9.6 °C 1024.6 hPa Calm   3.2 km/h 96 % 0.0 mm 0 W/m2
05:50 10.2 °C 9.6 °C 1024.6 hPa Calm   3.2 km/h 96 % 0.0 mm 0 W/m2
05:55 10.2 °C 9.6 °C 1024.6 hPa WSW 1.6 km/h 4.8 km/h 96 % 0.0 mm 0 W/m2
06:00 10.2 °C 9.6 °C 1024.6 hPa Calm   4.8 km/h 96 % 0.0 mm 0 W/m2
06:05 10.2 °C 9.6 °C 1024.6 hPa WSW 4.8 km/h 6.4 km/h 96 % 0.0 mm 0 W/m2
06:10 10.2 °C 9.6 °C 1024.6 hPa SW 6.4 km/h 6.4 km/h 96 % 0.0 mm 0 W/m2
06:15 10.2 °C 9.6 °C 1024.6 hPa Calm   6.4 km/h 96 % 0.0 mm 0 W/m2
06:20 10.2 °C 9.6 °C 1024.6 hPa Calm   6.4 km/h 96 % 0.0 mm 0 W/m2
06:25 10.2 °C 9.6 °C 1024.6 hPa SW 3.2 km/h 6.4 km/h 96 % 0.0 mm 0 W/m2
06:35 10.2 °C 9.6 °C 1024.9 hPa Calm   4.8 km/h 96 % 0.0 mm 0 W/m2
06:40 10.2 °C 9.6 °C 1024.9 hPa SW 1.6 km/h 4.8 km/h 96 % 0.0 mm 0 W/m2
06:45 10.3 °C 9.7 °C 1024.6 hPa SW 3.2 km/h 4.8 km/h 96 % 0.0 mm 0 W/m2
06:50 10.3 °C 9.7 °C 1024.6 hPa SSW 8.0 km/h 9.7 km/h 96 % 0.0 mm 0 W/m2
06:55 10.3 °C 9.7 °C 1024.6 hPa SSW 4.8 km/h 9.7 km/h 96 % 0.0 mm 0 W/m2
07:00 10.3 °C 9.7 °C 1024.9 hPa Calm   8.0 km/h 96 % 0.0 mm 0 W/m2
07:10 10.3 °C 9.7 °C 1024.6 hPa SW 3.2 km/h 6.4 km/h 96 % 0.0 mm 0 W/m2
07:15 10.3 °C 9.7 °C 1024.9 hPa West 3.2 km/h 11.3 km/h 96 % 0.0 mm 0 W/m2
07:20 10.3 °C 9.7 °C 1024.6 hPa WSW 6.4 km/h 11.3 km/h 96 % 0.0 mm 0 W/m2
07:25 10.3 °C 9.7 °C 1024.6 hPa SW 1.6 km/h 9.7 km/h 96 % 0.0 mm 0 W/m2
07:30 10.4 °C 9.8 °C 1024.6 hPa SW 1.6 km/h 9.7 km/h 96 % 0.0 mm 0 W/m2
07:35 10.4 °C 9.8 °C 1024.6 hPa SW 3.2 km/h 8.0 km/h 96 % 0.0 mm 0 W/m2
07:40 10.4 °C 9.8 °C 1024.9 hPa SW 1.6 km/h 8.0 km/h 96 % 0.0 mm 0 W/m2
07:45 10.4 °C 9.8 °C 1024.9 hPa SSW 6.4 km/h 8.0 km/h 96 % 0.0 mm 5 W/m2
07:50 10.4 °C 9.8 °C 1024.9 hPa SW 1.6 km/h 8.0 km/h 96 % 0.0 mm 9 W/m2
07:55 10.4 °C 9.8 °C 1024.9 hPa SW 3.2 km/h 6.4 km/h 96 % 0.0 mm 11 W/m2
08:00 10.4 °C 9.8 °C 1024.9 hPa SW 1.6 km/h 6.4 km/h 96 % 0.0 mm 16 W/m2
08:05 10.4 °C 9.8 °C 1024.9 hPa SW 4.8 km/h 6.4 km/h 96 % 0.0 mm 21 W/m2
08:10 10.4 °C 9.8 °C 1024.9 hPa SW 1.6 km/h 4.8 km/h 96 % 0.0 mm 23 W/m2
08:15 10.4 °C 9.8 °C 1024.9 hPa SW 3.2 km/h 8.0 km/h 96 % 0.0 mm 26 W/m2
08:20 10.4 °C 9.8 °C 1024.9 hPa SW 1.6 km/h 8.0 km/h 96 % 0.0 mm 30 W/m2
08:25 10.5 °C 9.9 °C 1025.3 hPa WSW 8.0 km/h 9.7 km/h 96 % 0.0 mm 35 W/m2
08:30 10.5 °C 9.9 °C 1025.3 hPa WSW 8.0 km/h 9.7 km/h 96 % 0.0 mm 40 W/m2
08:40 10.5 °C 9.9 °C 1025.3 hPa WSW 8.0 km/h 8.0 km/h 96 % 0.0 mm 65 W/m2
08:45 10.6 °C 9.9 °C 1025.6 hPa Calm   8.0 km/h 96 % 0.0 mm 114 W/m2
08:50 10.7 °C 10.1 °C 1025.6 hPa West 3.2 km/h 8.0 km/h 96 % 0.0 mm 120 W/m2
08:55 10.9 °C 10.3 °C 1025.6 hPa WSW 6.4 km/h 12.9 km/h 96 % 0.0 mm 86 W/m2
09:00 11.0 °C 10.4 °C 1025.6 hPa SW 11.3 km/h 12.9 km/h 96 % 0.0 mm 102 W/m2
09:05 11.1 °C 10.3 °C 1025.6 hPa WSW 6.4 km/h 12.9 km/h 95 % 0.0 mm 109 W/m2
09:10 11.1 °C 10.3 °C 1025.6 hPa SW 12.9 km/h 14.5 km/h 95 % 0.0 mm 98 W/m2
09:15 11.1 °C 10.3 °C 1025.6 hPa WSW 9.7 km/h 14.5 km/h 95 % 0.0 mm 104 W/m2
09:20 11.1 °C 10.3 °C 1026.0 hPa WSW 4.8 km/h 14.5 km/h 95 % 0.0 mm 109 W/m2
09:25 11.1 °C 10.3 °C 1026.0 hPa WSW 9.7 km/h 11.3 km/h 95 % 0.0 mm 111 W/m2
09:30 11.1 °C 10.3 °C 1025.6 hPa WSW 1.6 km/h 11.3 km/h 95 % 0.0 mm 125 W/m2
09:40 11.3 °C 10.5 °C 1025.6 hPa WSW 1.6 km/h 8.0 km/h 95 % 0.0 mm 192 W/m2
09:45 11.4 °C 10.6 °C 1025.6 hPa SW 4.8 km/h 11.3 km/h 95 % 0.0 mm 185 W/m2
09:55 11.4 °C 10.7 °C 1025.6 hPa West 4.8 km/h 16.1 km/h 95 % 0.0 mm 148 W/m2
10:00 11.4 °C 10.5 °C 1025.6 hPa West 4.8 km/h 16.1 km/h 94 % 0.0 mm 169 W/m2
10:05 11.5 °C 10.7 °C 1026.0 hPa WNW 6.4 km/h 14.5 km/h 95 % 0.0 mm 246 W/m2
10:10 11.8 °C 11.0 °C 1026.0 hPa West 4.8 km/h 9.7 km/h 95 % 0.0 mm 283 W/m2
10:15 11.9 °C 11.0 °C 1026.0 hPa West 6.4 km/h 16.1 km/h 94 % 0.0 mm 237 W/m2
10:20 12.0 °C 11.1 °C 1026.0 hPa West 4.8 km/h 20.9 km/h 94 % 0.0 mm 181 W/m2
10:25 12.0 °C 10.9 °C 1026.0 hPa WSW 9.7 km/h 20.9 km/h 93 % 0.0 mm 165 W/m2
10:30 11.9 °C 10.8 °C 1026.0 hPa WSW 9.7 km/h 19.3 km/h 93 % 0.0 mm 141 W/m2
10:40 11.7 °C 10.6 °C 1026.0 hPa WSW 6.4 km/h 19.3 km/h 93 % 0.0 mm 146 W/m2
10:45 11.7 °C 10.6 °C 1026.3 hPa West 3.2 km/h 19.3 km/h 93 % 0.0 mm 148 W/m2
10:50 11.7 °C 10.6 °C 1026.3 hPa West 12.9 km/h 19.3 km/h 93 % 0.0 mm 155 W/m2
10:55 11.7 °C 10.6 °C 1026.3 hPa West 6.4 km/h 17.7 km/h 93 % 0.0 mm 183 W/m2
11:00 11.7 °C 10.6 °C 1026.3 hPa WSW 11.3 km/h 17.7 km/h 93 % 0.0 mm 200 W/m2
11:05 11.8 °C 10.7 °C 1026.3 hPa SW 9.7 km/h 17.7 km/h 93 % 0.0 mm 227 W/m2
11:10 11.9 °C 10.8 °C 1026.3 hPa WSW 6.4 km/h 17.7 km/h 93 % 0.0 mm 290 W/m2
11:15 12.2 °C 11.1 °C 1026.3 hPa WSW 3.2 km/h 14.5 km/h 93 % 0.0 mm 288 W/m2
11:20 12.1 °C 11.0 °C 1026.3 hPa West 3.2 km/h 16.1 km/h 93 % 0.0 mm 299 W/m2
11:25 12.2 °C 10.9 °C 1026.3 hPa West 11.3 km/h 19.3 km/h 92 % 0.0 mm 309 W/m2
11:30 12.4 °C 11.3 °C 1026.3 hPa WSW 3.2 km/h 19.3 km/h 93 % 0.0 mm 302 W/m2
11:35 12.4 °C 11.2 °C 1026.3 hPa WSW 3.2 km/h 16.1 km/h 92 % 0.0 mm 248 W/m2
11:40 12.4 °C 11.2 °C 1026.3 hPa West 6.4 km/h 16.1 km/h 92 % 0.0 mm 346 W/m2
11:45 12.4 °C 11.2 °C 1026.3 hPa West 4.8 km/h 19.3 km/h 92 % 0.0 mm 325 W/m2
11:50 12.4 °C 11.0 °C 1026.3 hPa SW 8.0 km/h 20.9 km/h 91 % 0.0 mm 325 W/m2
11:55 12.6 °C 11.1 °C 1026.6 hPa WSW 11.3 km/h 20.9 km/h 91 % 0.0 mm 323 W/m2
12:00 12.4 °C 11.0 °C 1026.6 hPa WSW 17.7 km/h 19.3 km/h 91 % 0.0 mm 322 W/m2
12:05 12.6 °C 11.3 °C 1026.3 hPa WSW 4.8 km/h 19.3 km/h 92 % 0.0 mm 355 W/m2
12:10 12.7 °C 11.5 °C 1026.6 hPa West 6.4 km/h 19.3 km/h 92 % 0.0 mm 647 W/m2
12:15 13.2 °C 11.9 °C 1026.6 hPa West 4.8 km/h 19.3 km/h 92 % 0.0 mm 612 W/m2
12:20 13.1 °C 11.3 °C 1026.6 hPa SW 9.7 km/h 20.9 km/h 89 % 0.0 mm 608 W/m2
12:25 13.0 °C 11.6 °C 1026.6 hPa WSW 17.7 km/h 20.9 km/h 91 % 0.0 mm 612 W/m2
12:30 13.3 °C 11.7 °C 1026.6 hPa West 20.9 km/h 22.5 km/h 90 % 0.0 mm 610 W/m2
12:40 13.1 °C 11.5 °C 1026.3 hPa West 12.9 km/h 24.1 km/h 90 % 0.0 mm 587 W/m2
12:45 13.1 °C 11.5 °C 1026.3 hPa West 20.9 km/h 24.1 km/h 90 % 0.0 mm 613 W/m2
12:50 13.3 °C 11.8 °C 1026.3 hPa WNW 1.6 km/h 20.9 km/h 91 % 0.0 mm 603 W/m2
12:55 13.3 °C 11.7 °C 1026.3 hPa West 9.7 km/h 20.9 km/h 90 % 0.0 mm 591 W/m2
13:00 13.5 °C 11.9 °C 1026.3 hPa West 14.5 km/h 19.3 km/h 90 % 0.0 mm 605 W/m2
13:05 13.8 °C 12.2 °C 1026.3 hPa West 6.4 km/h 17.7 km/h 90 % 0.0 mm 596 W/m2
13:10 13.8 °C 12.1 °C 1026.3 hPa West 9.7 km/h 17.7 km/h 89 % 0.0 mm 594 W/m2
13:15 14.1 °C 12.1 °C 1026.3 hPa WSW 9.7 km/h 14.5 km/h 88 % 0.0 mm 612 W/m2
13:20 14.1 °C 12.1 °C 1026.3 hPa West 9.7 km/h 16.1 km/h 88 % 0.0 mm 596 W/m2
13:25 13.8 °C 12.2 °C 1026.3 hPa WNW 6.4 km/h 16.1 km/h 90 % 0.0 mm 598 W/m2
13:30 13.8 °C 11.8 °C 1026.3 hPa West 11.3 km/h 14.5 km/h 88 % 0.0 mm 624 W/m2
13:35 13.3 °C 11.3 °C 1026.3 hPa West 6.4 km/h 19.3 km/h 88 % 0.0 mm 640 W/m2
13:40 13.2 °C 11.6 °C 1026.3 hPa NW 11.3 km/h 19.3 km/h 90 % 0.0 mm 629 W/m2
13:45 13.4 °C 12.0 °C 1026.3 hPa West 11.3 km/h 17.7 km/h 91 % 0.0 mm 633 W/m2
13:50 13.8 °C 12.1 °C 1026.3 hPa WSW 8.0 km/h 17.7 km/h 89 % 0.0 mm 628 W/m2
13:55 13.9 °C 11.9 °C 1026.3 hPa WSW 6.4 km/h 16.1 km/h 88 % 0.0 mm 621 W/m2
14:00 13.6 °C 11.7 °C 1026.3 hPa West 6.4 km/h 19.3 km/h 88 % 0.0 mm 619 W/m2
14:05 13.4 °C 11.6 °C 1026.3 hPa WSW 4.8 km/h 22.5 km/h 89 % 0.0 mm 591 W/m2
14:10 13.4 °C 11.6 °C 1026.3 hPa West 11.3 km/h 22.5 km/h 89 % 0.0 mm 598 W/m2
14:15 13.5 °C 11.7 °C 1026.3 hPa WNW 11.3 km/h 22.5 km/h 89 % 0.0 mm 619 W/m2
14:20 13.2 °C 11.4 °C 1026.3 hPa West 9.7 km/h 22.5 km/h 89 % 0.0 mm 522 W/m2
14:25 13.4 °C 11.6 °C 1026.3 hPa WSW 9.7 km/h 20.9 km/h 89 % 0.0 mm 534 W/m2
14:30 13.6 °C 12.0 °C 1026.3 hPa WNW 6.4 km/h 22.5 km/h 90 % 0.0 mm 506 W/m2
14:35 13.8 °C 11.8 °C 1026.3 hPa WNW 8.0 km/h 22.5 km/h 88 % 0.0 mm 571 W/m2
14:40 14.1 °C 12.3 °C 1026.3 hPa WSW 8.0 km/h 19.3 km/h 89 % 0.0 mm 589 W/m2
14:45 13.8 °C 11.9 °C 1026.0 hPa West 11.3 km/h 19.3 km/h 88 % 0.0 mm 589 W/m2
14:50 14.1 °C 12.4 °C 1026.0 hPa WNW 9.7 km/h 19.3 km/h 90 % 0.0 mm 582 W/m2
14:55 14.2 °C 12.3 °C 1026.0 hPa WSW 14.5 km/h 19.3 km/h 88 % 0.0 mm 504 W/m2
15:00 13.7 °C 11.8 °C 1026.0 hPa WNW 4.8 km/h 25.7 km/h 88 % 0.0 mm 591 W/m2
15:05 13.9 °C 12.2 °C 1026.0 hPa WSW 16.1 km/h 25.7 km/h 89 % 0.0 mm 577 W/m2
15:10 14.0 °C 12.2 °C 1026.0 hPa West 11.3 km/h 20.9 km/h 89 % 0.0 mm 450 W/m2
15:15 13.7 °C 11.7 °C 1026.0 hPa WSW 11.3 km/h 20.9 km/h 88 % 0.0 mm 490 W/m2
15:20 13.4 °C 11.6 °C 1026.0 hPa West 17.7 km/h 24.1 km/h 89 % 0.0 mm 394 W/m2
15:25 13.3 °C 11.7 °C 1026.0 hPa West 4.8 km/h 24.1 km/h 90 % 0.0 mm 420 W/m2
15:30 13.5 °C 11.9 °C 1026.0 hPa SW 16.1 km/h 19.3 km/h 90 % 0.0 mm 482 W/m2
15:40 13.7 °C 11.9 °C 1026.0 hPa West 8.0 km/h 20.9 km/h 89 % 0.0 mm 471 W/m2
15:45 13.6 °C 11.9 °C 1026.0 hPa West 14.5 km/h 22.5 km/h 90 % 0.0 mm 471 W/m2
15:50 13.6 °C 11.9 °C 1026.0 hPa WNW 11.3 km/h 22.5 km/h 90 % 0.0 mm 450 W/m2
15:55 13.6 °C 12.0 °C 1026.0 hPa West 9.7 km/h 19.3 km/h 90 % 0.0 mm 441 W/m2
16:00 13.7 °C 11.9 °C 1026.0 hPa WNW 11.3 km/h 16.1 km/h 89 % 0.0 mm 420 W/m2
16:05 13.4 °C 11.7 °C 1026.0 hPa WSW 6.4 km/h 22.5 km/h 89 % 0.0 mm 446 W/m2
16:10 13.6 °C 11.9 °C 1026.0 hPa WSW 8.0 km/h 22.5 km/h 90 % 0.0 mm 482 W/m2
16:15 13.4 °C 11.8 °C 1026.0 hPa West 6.4 km/h 19.3 km/h 90 % 0.0 mm 339 W/m2
16:20 13.3 °C 11.8 °C 1026.0 hPa WSW 12.9 km/h 19.3 km/h 91 % 0.0 mm 294 W/m2
16:25 13.0 °C 11.6 °C 1026.0 hPa SW 6.4 km/h 19.3 km/h 91 % 0.0 mm 244 W/m2
16:30 12.7 °C 11.2 °C 1026.0 hPa West 8.0 km/h 20.9 km/h 91 % 0.0 mm 195 W/m2
16:35 12.7 °C 11.4 °C 1026.0 hPa West 8.0 km/h 20.9 km/h 92 % 0.0 mm 195 W/m2
16:40 12.7 °C 11.6 °C 1026.0 hPa WNW 8.0 km/h 16.1 km/h 93 % 0.0 mm 179 W/m2
16:45 12.6 °C 11.5 °C 1026.0 hPa WSW 8.0 km/h 16.1 km/h 93 % 0.0 mm 137 W/m2
16:50 12.4 °C 11.3 °C 1026.0 hPa West 11.3 km/h 17.7 km/h 93 % 0.0 mm 148 W/m2
16:55 12.4 °C 11.5 °C 1026.0 hPa West 6.4 km/h 17.7 km/h 94 % 0.0 mm 141 W/m2
17:00 12.4 °C 11.3 °C 1026.0 hPa WSW 4.8 km/h 12.9 km/h 93 % 0.0 mm 158 W/m2
17:05 12.4 °C 11.5 °C 1026.0 hPa WSW 6.4 km/h 12.9 km/h 94 % 0.0 mm 151 W/m2
17:10 12.4 °C 11.5 °C 1026.0 hPa WNW 11.3 km/h 12.9 km/h 94 % 0.0 mm 148 W/m2
17:15 12.3 °C 11.4 °C 1026.0 hPa WSW 1.6 km/h 12.9 km/h 94 % 0.0 mm 135 W/m2
17:20 12.3 °C 11.4 °C 1026.0 hPa West 9.7 km/h 12.9 km/h 94 % 0.0 mm 128 W/m2
17:25 12.2 °C 11.3 °C 1026.0 hPa WSW 4.8 km/h 11.3 km/h 94 % 0.0 mm 121 W/m2
17:30 12.2 °C 11.4 °C 1026.0 hPa WSW 1.6 km/h 11.3 km/h 95 % 0.0 mm 109 W/m2
17:35 12.1 °C 11.2 °C 1026.0 hPa WNW 6.4 km/h 9.7 km/h 94 % 0.0 mm 111 W/m2
17:40 12.1 °C 11.3 °C 1026.0 hPa West 4.8 km/h 9.7 km/h 95 % 0.0 mm 102 W/m2
17:45 12.1 °C 11.3 °C 1026.0 hPa WSW 3.2 km/h 9.7 km/h 95 % 0.0 mm 88 W/m2
17:50 11.9 °C 11.2 °C 1026.0 hPa Calm   11.3 km/h 95 % 0.0 mm 76 W/m2
17:55 11.8 °C 11.1 °C 1026.0 hPa WSW 11.3 km/h 11.3 km/h 95 % 0.0 mm 65 W/m2
18:00 11.6 °C 10.8 °C 1026.0 hPa WSW 1.6 km/h 12.9 km/h 95 % 0.0 mm 60 W/m2
18:05 11.4 °C 10.6 °C 1026.0 hPa WSW 1.6 km/h 12.9 km/h 95 % 0.0 mm 49 W/m2
18:10 11.2 °C 10.6 °C 1026.0 hPa WSW 4.8 km/h 8.0 km/h 96 % 0.0 mm 47 W/m2
18:15 11.0 °C 10.4 °C 1026.0 hPa Calm   9.7 km/h 96 % 0.0 mm 42 W/m2
18:25 10.7 °C 10.1 °C 1026.0 hPa WSW 3.2 km/h 9.7 km/h 96 % 0.0 mm 28 W/m2
18:30 10.7 °C 10.3 °C 1026.0 hPa SSW 1.6 km/h 8.0 km/h 97 % 0.0 mm 25 W/m2
18:40 10.6 °C 10.1 °C 1026.3 hPa SSW 4.8 km/h 6.4 km/h 97 % 0.0 mm 21 W/m2
18:45 10.4 °C 10.0 °C 1026.3 hPa WSW 3.2 km/h 8.0 km/h 97 % 0.0 mm 18 W/m2
18:50 10.3 °C 9.9 °C 1026.3 hPa WSW 6.4 km/h 8.0 km/h 97 % 0.0 mm 12 W/m2
18:55 10.3 °C 9.8 °C 1026.3 hPa WSW 4.8 km/h 9.7 km/h 97 % 0.0 mm 7 W/m2
19:00 10.1 °C 9.6 °C 1026.3 hPa WSW 4.8 km/h 9.7 km/h 97 % 0.0 mm 5 W/m2
19:10 9.9 °C 9.5 °C 1026.3 hPa WSW 1.6 km/h 8.0 km/h 97 % 0.0 mm 0 W/m2
19:15 9.9 °C 9.5 °C 1026.3 hPa Calm   8.0 km/h 97 % 0.0 mm 0 W/m2
19:20 9.8 °C 9.4 °C 1026.3 hPa WSW 3.2 km/h 6.4 km/h 97 % 0.0 mm 0 W/m2
19:25 9.8 °C 9.3 °C 1026.3 hPa Calm   9.7 km/h 97 % 0.0 mm 0 W/m2
19:30 9.8 °C 9.4 °C 1026.3 hPa WSW 4.8 km/h 9.7 km/h 97 % 0.0 mm 0 W/m2
19:35 9.8 °C 9.3 °C 1026.3 hPa Calm   6.4 km/h 97 % 0.0 mm 0 W/m2
19:40 9.8 °C 9.5 °C 1026.3 hPa SW 4.8 km/h 6.4 km/h 98 % 0.0 mm 0 W/m2
19:45 9.7 °C 9.4 °C 1026.6 hPa SW 6.4 km/h 8.0 km/h 98 % 0.0 mm 0 W/m2
19:50 9.7 °C 9.4 °C 1026.6 hPa SW 1.6 km/h 9.7 km/h 98 % 0.0 mm 0 W/m2
19:55 9.7 °C 9.4 °C 1026.6 hPa Calm   9.7 km/h 98 % 0.0 mm 0 W/m2
20:00 9.7 °C 9.4 °C 1026.6 hPa SW 4.8 km/h 8.0 km/h 98 % 0.0 mm 0 W/m2
20:10 9.7 °C 9.4 °C 1026.6 hPa SSW 3.2 km/h 11.3 km/h 98 % 0.0 mm 0 W/m2
20:15 9.7 °C 9.4 °C 1026.6 hPa WSW 4.8 km/h 6.4 km/h 98 % 0.0 mm 0 W/m2
20:20 9.7 °C 9.4 °C 1026.6 hPa SSW 6.4 km/h 6.4 km/h 98 % 0.0 mm 0 W/m2
20:25 9.6 °C 9.3 °C 1026.6 hPa WSW 4.8 km/h 9.7 km/h 98 % 0.0 mm 0 W/m2
20:30 9.6 °C 9.3 °C 1026.6 hPa WSW 3.2 km/h 9.7 km/h 98 % 0.0 mm 0 W/m2
20:35 9.6 °C 9.3 °C 1026.6 hPa SSW 1.6 km/h 8.0 km/h 98 % 0.0 mm 0 W/m2
20:40 9.6 °C 9.3 °C 1026.6 hPa Calm   6.4 km/h 98 % 0.0 mm 0 W/m2
20:45 9.6 °C 9.3 °C 1026.6 hPa WSW 3.2 km/h 6.4 km/h 98 % 0.0 mm 0 W/m2
20:50 9.6 °C 9.3 °C 1026.6 hPa Calm   6.4 km/h 98 % 0.0 mm 0 W/m2
20:55 9.6 °C 9.3 °C 1026.6 hPa West 4.8 km/h 11.3 km/h 98 % 0.0 mm 0 W/m2
21:00 9.6 °C 9.3 °C 1026.6 hPa SW 4.8 km/h 11.3 km/h 98 % 0.0 mm 0 W/m2
21:05 9.6 °C 9.3 °C 1026.6 hPa SSW 1.6 km/h 9.7 km/h 98 % 0.0 mm 0 W/m2
21:10 9.6 °C 9.3 °C 1026.6 hPa WSW 3.2 km/h 9.7 km/h 98 % 0.0 mm 0 W/m2
21:15 9.6 °C 9.3 °C 1026.6 hPa SW 3.2 km/h 8.0 km/h 98 % 0.0 mm 0 W/m2
21:20 9.6 °C 9.3 °C 1026.6 hPa Calm   8.0 km/h 98 % 0.0 mm 0 W/m2
21:25 9.5 °C 9.2 °C 1026.6 hPa WSW 3.2 km/h 9.7 km/h 98 % 0.0 mm 0 W/m2
21:30 9.5 °C 9.2 °C 1026.6 hPa Calm   9.7 km/h 98 % 0.0 mm 0 W/m2
21:40 9.5 °C 9.2 °C 1026.6 hPa Calm   6.4 km/h 98 % 0.0 mm 0 W/m2
21:45 9.4 °C 9.3 °C 1026.6 hPa SSW 3.2 km/h 8.0 km/h 99 % 0.0 mm 0 W/m2
21:50 9.4 °C 9.2 °C 1027.0 hPa SSW 3.2 km/h 8.0 km/h 99 % 0.0 mm 0 W/m2
21:55 9.3 °C 9.2 °C 1027.0 hPa SSW 3.2 km/h 6.4 km/h 99 % 0.0 mm 0 W/m2
22:00 9.4 °C 9.1 °C 1027.0 hPa Calm   6.4 km/h 98 % 0.0 mm 0 W/m2
22:05 9.4 °C 9.1 °C 1027.0 hPa SSW 3.2 km/h 6.4 km/h 98 % 0.0 mm 0 W/m2
22:10 9.4 °C 9.1 °C 1027.0 hPa SSW 3.2 km/h 9.7 km/h 98 % 0.0 mm 0 W/m2
22:15 9.4 °C 9.1 °C 1027.0 hPa SW 6.4 km/h 9.7 km/h 98 % 0.0 mm 0 W/m2
22:20 9.2 °C 9.1 °C 1027.0 hPa SSW 4.8 km/h 8.0 km/h 99 % 0.0 mm 0 W/m2
22:25 9.2 °C 9.0 °C 1027.0 hPa Calm   6.4 km/h 99 % 0.0 mm 0 W/m2
22:30 9.2 °C 9.1 °C 1027.0 hPa SSW 1.6 km/h 6.4 km/h 99 % 0.0 mm 0 W/m2
22:35 9.2 °C 9.1 °C 1027.0 hPa Calm   4.8 km/h 99 % 0.0 mm 0 W/m2
22:40 9.1 °C 9.0 °C 1027.0 hPa SW 3.2 km/h 6.4 km/h 99 % 0.0 mm 0 W/m2
22:45 8.9 °C 8.6 °C 1027.0 hPa SW 3.2 km/h 6.4 km/h 98 % 0.0 mm 0 W/m2
22:50 9.0 °C 8.9 °C 1027.0 hPa Calm   4.8 km/h 99 % 0.0 mm 0 W/m2
22:55 9.0 °C 8.9 °C 1027.0 hPa SW 1.6 km/h 6.4 km/h 99 % 0.0 mm 0 W/m2
23:00 9.0 °C 8.9 °C 1027.0 hPa WSW 3.2 km/h 6.4 km/h 99 % 0.0 mm 0 W/m2
23:05 9.0 °C 8.9 °C 1027.0 hPa West 6.4 km/h 8.0 km/h 99 % 0.0 mm 0 W/m2
23:10 8.9 °C 8.8 °C 1027.0 hPa West 4.8 km/h 8.0 km/h 99 % 0.0 mm 0 W/m2
23:15 8.8 °C 8.7 °C 1027.0 hPa Calm   8.0 km/h 99 % 0.0 mm 0 W/m2
23:20 8.9 °C 8.7 °C 1027.0 hPa WSW 6.4 km/h 8.0 km/h 99 % 0.0 mm 0 W/m2
23:25 8.9 °C 8.7 °C 1027.0 hPa WSW 1.6 km/h 8.0 km/h 99 % 0.0 mm 0 W/m2
23:30 8.9 °C 8.7 °C 1027.0 hPa WSW 1.6 km/h 8.0 km/h 99 % 0.0 mm 0 W/m2
23:35 8.8 °C 8.7 °C 1027.0 hPa Calm   6.4 km/h 99 % 0.0 mm 0 W/m2
23:40 8.7 °C 8.6 °C 1027.0 hPa SW 1.6 km/h 6.4 km/h 99 % 0.0 mm 0 W/m2
23:45 8.7 °C 8.6 °C 1027.0 hPa WSW 8.0 km/h 8.0 km/h 99 % 0.0 mm 0 W/m2
23:50 8.7 °C 8.5 °C 1027.0 hPa SW 1.6 km/h 8.0 km/h 99 % 0.0 mm 0 W/m2
23:55 8.7 °C 8.6 °C 1027.0 hPa Calm   8.0 km/h 99 % 0.0 mm 0 W/m2
Avec l'autorisation de Weather Underground - 1.75 mb